Tracking 29892 objects as of 21-Nov-2024
HD Live streaming from Space Station
objects crossing your sky now

CZ-6A DEB

Track CZ-6A DEB now!
10-day predictions


NORAD ID: 54450
Int'l Code: 2022-151GA
Perigee: 651.9 km
Apogee: 864.3 km
Inclination: 98.7 °
Period: 99.8 minutes
Semi major axis: 7129 km
RCS: Unknown
Launch date: November 11, 2022
Source: People's Republic of China (PRC)
Launch site: Taiyaun Space Center, China (TSC)

Note: This is SATELLITE DEBRIS
Your satellite tracking list
Your tracking list is empty




NASA's NSSDC Master Catalog

Two Line Element Set (TLE):
1 54450U 22151GA  24325.57018897  .00002311  00000-0  62728-3 0  9995
2 54450  98.7396 359.7355 0148969 264.2270  94.1919 14.42271454106249
Source of the keplerian elements: AFSPC